Torna al catalogo

FENGYUN 1C DEB

AttivoSSO
NORAD 30304·DEBRIS·🇨🇳 China

Lanciato May 10, 1999 da Taiyuan Satellite Launch Center

Loading…

Prossimi Passaggi (prossime 24 ore)

TLE

AggiornatoSource: Space-Track

Epoca: Sep 14, 2026, 04:05 UTC

1 30304U 99025ZR  26257.17039094  .00001205  00000-0  61063-3 0  9997
2 30304  99.0179 338.2277 0071393 347.0322  12.9014 14.16697770  7117

Traccia FENGYUN 1C DEB in tempo reale con AllMySat

Download on the App Store